Airfield :
LOGIN :

Register | Disclaimer

   EN    FR    IT 

 










Legend :    VFR   Marginal VFR   IFR   Intensive IFR   Very Intensive IFR
Visi :
Ceiling :
>= 8 km
>= 3000ft
5 to 8 km
1000 to 3000 ft
1500m to 5 km
500 to 1000 ft
800 to 1500m
200 to 500 ft
< 800m
< 200 ft
Symbols :   Thunderstorms  Fog  Heavy snow  Heavy precipitations  Wind > 20 kt
SIGMETs :     Misc.  Thunderstorms  Icing  Turbulence  Mountain Waves  Volcanic Ashes







- Airport Elevation : 13 ft
- IATA code : CEQ
- Download approach charts


LFMD - Cannes Mandelieu

CURRENT METAR :
  • 182330Z AUTO 01006KT 330V040 CAVOK 16/13 Q1015

EXPIRED METARs :
  • 182300Z AUTO 36004KT 320V030 CAVOK 15/13 Q1015
  • 182230Z AUTO 36003KT 320V050 CAVOK 16/13 Q1014
  • 182200Z AUTO 01004KT 320V050 CAVOK 16/13 Q1014
  • 182130Z AUTO 01003KT 340V050 CAVOK 16/13 Q1014
  • 182100Z AUTO 36004KT 320V040 CAVOK 17/13 Q1014 NOSIG

TAF TAF LFMD
Valid from the 18 at 15:00 until the 19 at 15:00 UTC


181400Z 1815/1915 10010KT CAVOK
BECMG 1817/1819 36006KT
BECMG 1908/1910 16008KT
ATIS : +33 4 93 48 73 23
No reported NOTAMs for that airfield.



MET'MAP, your aeronautical weather chart ! - Copyright ORBIFLY December 2007 - Disclaimer

ORBIFLY MET'MAP TEAM :

Programming & Development : Alexandra Zaïnal
Concept & Development : Baudouin d'Aumeries
Co-Development & Prog : Marc-Olivier Méhu
Technical & hardware support : Manuel Goepfert

Contact : metmap@orbifly.com




SOURCES & CREDITS :

   NOAA